Location: Asheville, NC
(35.6000°N, 82.5500°W)
Time: 06:07:42
(UTC-04:00)

Vanguard 1 Rocket - Pass Details

Date: 10 December 2017
Orbit: 652 x 4225 km, 34.3° (Epoch: 22 July)

Event Time Altitude Azimuth Distance (km) Brightness Sun altitude
Exits shadow 03:35:54 14° 204° (SSW) 6,289 11.4 -46.5°
Drops below altitude 10° 03:39:00 10° 196° (SSW) 6,385 11.5 -45.9°
Sets 03:45:39 0° 180° (S) 6,804 11.9 -44.6°
